Home   Weather   Kirchdorf an der Krems   Past weeks

Flag for Austria Past Weather in Kirchdorf an der Krems, Upper Austria, Austria — Yesterday and Last 2 Weeks

Now
45 °F

Overcast.


Feels Like: 45 °F
Forecast: 28 / 57 °F
Wind: 2 mph from Northwest

Location: Kremsmuenster

Current Time: Apr 23, 2017 at 9:49:15 pm

Latest Report: Apr 23, 2017 at 8:00 pm


Visibility: 13 mi

Pressure: 30.23 "Hg

Humidity: 52%

Dew Point: 29 °F

Location of Kirchdorf an der KremsLocation

Past Weather in Kirchdorf an der Krems — Graph

°F

Kirchdorf an der Krems Temperature Yesterday

Maximum temperature yesterday: 52 °F (at 4:00 pm)
Minimum temperature yesterday: 43 °F (at 11:00 pm)
Average temperature yesterday: 48 °F

High & Low Weather Summary for the Past Weeks

 TemperatureHumidityPressure
High73 °F (Apr 10, 4:00 pm)93% (Apr 9, 4:00 am)30.57 "Hg (Apr 9, 4:00 am)
Low32 °F (Apr 19, 9:00 pm)37% (Apr 10, 5:00 pm)29.86 "Hg (Apr 13, 4:00 am)
Average47 °F69%30.16 "Hg
* Reported Apr 8 8:00 pm — Apr 23 8:00 pm, Kirchdorf an der Krems, Weather by CustomWeather, © 2017

Note: Actual official high and low records may vary slightly from our data, if they occured in-between our weather recording intervals... More about our weather records

Advertising

Kirchdorf an der Krems Weather History for the Previous 24 Hours

Scroll right to see more
 ConditionsComfort  
Time TempWeatherWind HumidityBarometerVisibility
8:00 pm
Sun, Apr 23
45 °FOvercast.2 mph52%30.23 "Hg12 mi
7:00 pm46 °FCool.5 mph51%30.21 "HgN/A
6:00 pm47 °FCool.7 mph50%30.19 "HgN/A
5:00 pm48 °FPartly sunny.6 mph54%30.19 "Hg8 mi
4:00 pm48 °FCool.8 mph48%30.19 "HgN/A
3:00 pm47 °FCool.5 mph50%30.20 "HgN/A
2:00 pm48 °FCool.6 mph59%30.20 "HgN/A
1:00 pm47 °FCool.5 mph55%30.21 "HgN/A
12:00 pm45 °FCool.7 mph64%30.23 "HgN/A
11:00 am43 °FOvercast.3 mph66%30.24 "HgN/A
10:00 am41 °FFog.6 mph77%30.24 "HgN/A
9:00 am41 °FQuite cool.7 mph77%30.23 "HgN/A
8:00 am41 °FOvercast.5 mph82%30.22 "Hg4 mi
7:00 am40 °FOvercast.5 mph83%30.21 "Hg4 mi
6:00 am39 °FChilly.5 mph86%30.19 "HgN/A
5:00 am39 °FPassing clouds.16 mph86%30.18 "Hg2 mi
4:00 am39 °FSprinkles. Overcast.7 mph84%30.16 "HgN/A
3:00 am39 °FChilly.7 mph83%30.17 "HgN/A
2:00 am40 °FQuite cool.5 mph84%30.18 "HgN/A
1:00 am38 °FChilly.1 mph83%30.18 "HgN/A
12:00 am38 °FFog.5 mph82%30.19 "HgN/A
11:00 pm
Sat, Apr 22
43 °FQuite cool.5 mph85%30.17 "HgN/A
10:00 pm43 °FSprinkles. Overcast.6 mph86%30.16 "HgN/A
9:00 pm44 °FFog.6 mph85%30.14 "HgN/A
Weather by CustomWeather, © 2017

See weather overviewHow to use our weather pages